AAL12 KLAX-KBOS

Flight info

Callsign AAL12
Flight time N/A
Altitude 35000
Route DOTSS2 CLEEE PKE J96 CIM/N0441F370 SLN IRK JOT J146 GIJ J554 JHW Q82 PONCT JFUND2
Aircraft A321/M-SDE3FGHIRWY/LB1

Departure

Time 2026-04-25 16:09
Airport Los Angeles International Airport (KLAX)

Arrival

Time N/A
Airport Boston Logan International Airport (KBOS)
Time Latitude Longitude Altitude Speed Heading
2026-04-25 15:44 33.94087 -118.40940 93 ft 0 kts 263°
2026-04-25 15:56 33.94090 -118.40918 93 ft 4 kts 263°
2026-04-25 15:56 33.94093 -118.40892 92 ft 4 kts 254°
2026-04-25 15:56 33.94103 -118.40863 93 ft 4 kts 231°
2026-04-25 15:56 33.94123 -118.40844 92 ft 4 kts 192°
2026-04-25 15:57 33.94133 -118.40842 92 ft 3 kts 173°
2026-04-25 15:57 33.94107 -118.40838 92 ft 4 kts 173°
2026-04-25 15:57 33.94080 -118.40834 94 ft 4 kts 173°
2026-04-25 15:57 33.94053 -118.40830 95 ft 4 kts 173°
2026-04-25 15:58 33.94026 -118.40826 95 ft 4 kts 173°
2026-04-25 15:58 33.94000 -118.40822 95 ft 3 kts 173°
2026-04-25 15:58 33.93996 -118.40822 93 ft 0 kts 173°
2026-04-25 16:02 33.93992 -118.40821 93 ft 3 kts 173°
2026-04-25 16:03 33.93954 -118.40815 93 ft 8 kts 172°
2026-04-25 16:03 33.93897 -118.40790 94 ft 8 kts 142°
2026-04-25 16:03 33.93845 -118.40738 94 ft 12 kts 145°
2026-04-25 16:03 33.93814 -118.40640 94 ft 15 kts 88°
2026-04-25 16:04 33.93824 -118.40524 95 ft 13 kts 84°
2026-04-25 16:04 33.93834 -118.40419 95 ft 12 kts 83°
2026-04-25 16:04 33.93846 -118.40316 96 ft 14 kts 82°
2026-04-25 16:04 33.93861 -118.40174 97 ft 19 kts 82°
2026-04-25 16:05 33.93877 -118.40018 96 ft 19 kts 83°
2026-04-25 16:05 33.93893 -118.39856 96 ft 20 kts 83°
2026-04-25 16:05 33.93929 -118.39510 96 ft 22 kts 83°
2026-04-25 16:06 33.93947 -118.39326 93 ft 23 kts 83°
2026-04-25 16:06 33.93967 -118.39134 95 ft 23 kts 83°
2026-04-25 16:06 33.93987 -118.38942 94 ft 23 kts 83°
2026-04-25 16:06 33.94008 -118.38746 94 ft 24 kts 84°
2026-04-25 16:07 33.94025 -118.38550 96 ft 24 kts 83°
2026-04-25 16:07 33.94032 -118.38484 96 ft 24 kts 83°
2026-04-25 16:07 33.94069 -118.38151 94 ft 25 kts 82°
2026-04-25 16:07 33.94065 -118.38014 94 ft 13 kts 135°
2026-04-25 16:08 33.93987 -118.38022 95 ft 12 kts 231°
2026-04-25 16:08 33.93975 -118.38120 94 ft 12 kts 263°
2026-04-25 16:08 33.93949 -118.38353 99 ft 59 kts 263°
2026-04-25 16:08 33.93872 -118.39117 95 ft 123 kts 263°
2026-04-25 16:09 33.93748 -118.40346 105 ft 170 kts 263°
2026-04-25 16:09 33.93611 -118.41790 652 ft 173 kts 262°
2026-04-25 16:09 33.93464 -118.43225 1335 ft 173 kts 261°
2026-04-25 16:09 33.93312 -118.44712 1672 ft 189 kts 260°
2026-04-25 16:10 33.92873 -118.46281 1860 ft 210 kts 238°
2026-04-25 16:10 33.91934 -118.47757 2089 ft 234 kts 230°
2026-04-25 16:10 33.90875 -118.49351 2517 ft 252 kts 230°
2026-04-25 16:10 33.89746 -118.51002 3195 ft 257 kts 228°
2026-04-25 16:11 33.88581 -118.52662 3940 ft 261 kts 228°
2026-04-25 16:11 33.87359 -118.54281 4735 ft 262 kts 220°
2026-04-25 16:11 33.85796 -118.55408 5459 ft 266 kts 201°
2026-04-25 16:11 33.83963 -118.55802 6152 ft 273 kts 181°
2026-04-25 16:12 33.82067 -118.55444 6808 ft 279 kts 170°
2026-04-25 16:12 33.80166 -118.54919 7519 ft 282 kts 170°
2026-04-25 16:12 33.78249 -118.54393 8235 ft 283 kts 171°
2026-04-25 16:12 33.77598 -118.54216 8479 ft 284 kts 171°
2026-04-25 16:13 33.74373 -118.53341 9667 ft 288 kts 172°
2026-04-25 16:13 33.72421 -118.52759 10316 ft 293 kts 165°
2026-04-25 16:13 33.70605 -118.51583 10945 ft 303 kts 146°
2026-04-25 16:13 33.69124 -118.49678 11269 ft 328 kts 126°
2026-04-25 16:14 33.68171 -118.47074 11412 ft 354 kts 112°
2026-04-25 16:14 33.67351 -118.44209 11720 ft 369 kts 112°
2026-04-25 16:14 33.66505 -118.41271 12332 ft 376 kts 112°
2026-04-25 16:14 33.65637 -118.38296 13147 ft 380 kts 114°
2026-04-25 16:15 33.64824 -118.35247 13909 ft 388 kts 107°
2026-04-25 16:15 33.64445 -118.32046 14432 ft 398 kts 95°
2026-04-25 16:15 33.64444 -118.28661 14960 ft 402 kts 92°
2026-04-25 16:15 33.64457 -118.25338 15502 ft 405 kts 92°
2026-04-25 16:16 33.64465 -118.21949 16056 ft 408 kts 92°
2026-04-25 16:16 33.64470 -118.18530 16598 ft 411 kts 92°
2026-04-25 16:16 33.64472 -118.15087 17136 ft 414 kts 92°
2026-04-25 16:16 33.64473 -118.11625 17703 ft 417 kts 92°
2026-04-25 16:17 33.64470 -118.08129 18285 ft 420 kts 92°
2026-04-25 16:17 33.64465 -118.04614 18851 ft 421 kts 93°